OBJECT B, 56732

Orbit data source: Space-Track

You're viewing an Uncataloged Satellite

Recently launched and/or uncataloged satellites may have evolving metadata. Metadata may include but not limited to: Owner, Maufacturer, Bus, Motor, and Mission.

OBJECT B, 56732 is a satellite owned by CASC (CN) in LEO that was launched on Sun, 21 May 2023 UTC via a CHANG ZHENG 2C launch vehicle from the Jiuquan Satellite Launch Center, China (JSC). Unknown objects in Earth's orbit typically refer to objects detected orbiting the Earth but have not yet been identified or cataloged. These objects could be anything from previously untracked satellites, spent rocket stages, debris from satellite collisions, or even natural meteoroids temporarily captured by Earth's gravity.

Loading next visibility...
Identifier
56732, 2023-069B
Orbit
LEO
Country
Flag of CNCN / PRC
Related business
Manufacturer
DFHZ?
Mission
Operational Amateur Science
Bus & Motor
AK1B, Unknown motor
Mass
~200 kg wet, ~200 kg dry
Launch date (UTC)
2023-05-21 (3 years ago)
Launch vehicle
CHANG ZHENG 2C
Launch site
Jiuquan Satellite Launch Center, China (JSC)
Object type
Unknown
Shape & HBR
Box + 2 Pan, 2.0 m
Radar Cross Section
2.815 m², Large (>1 m²)

Expand to show TLE details & history
Last TLE update: 22 hours ago

TLE from 22 hours ago
0 OBJECT B
1 56732U 23069B   26172.51256166  .00004005  00000-0  24875-3 0  9991
2 56732  41.0101  44.4974 0012432 276.2008  83.7389 15.10567395170885
Epoch: 2026-06-21T12:18Z
TLE epoch observation values (Epoch: 2026-06-21T12:18:05.327Z)
Latitude
-0.00001°
Longitude
-49.73657°
Altitude
533.1 km
Speed
7.599 km/s
True Right ascension
02h 57m 59s
True Declination
0° 00' 00"
Sunlit
Object was in daylight at epoch
Visualization orbit readout
Latitude
Unknown
Longitude
Unknown
Altitude
Unknown
Speed
Unknown
Apparent Right ascension
Unknown
Apparent Declination
Unknown
Sunlit
N/A
Visualization observer readout
Local Sidereal Time
21:31:24
Azimuth
Unknown
Elevation
Unknown
Doppler factor
Unknown
Orbital elements
Apogee altitude
545.326 km
Perigee altitude
528.133 km
Semi-major axis
6,914.866 km
Eccentricity
0.00124
Inclination
41.0101°
RAAN
44.4974°
Arg. of periapsis
276.2008°
True anomaly
83.88053°
Mean anomaly
83.7389°
Eccentric anomaly
83.80971°
Mean motion
3.77457 °/min
Orbital period
95.38 mins
BSTAR
0.00024875
Loading maneuver chart data...
Computing Atmospheric mass density...
Loading historical data...
Loading historical data...
Loading historical data...
Loading historical data...
Loading historical data...
Loading historical data...
Loading historical data...

Documentation

Showing up to 5 results
|